[[{"header":{"parameterUnit":"m.s-1","parameterCategory":1,"la1":30.2991,"la2":30.254,"lo1":-89.0895,"lo2":-89.0444,"dy":0.0017,"dx":0.0017,"nx":28,"ny":28,"refTime":"2023-07-23T09:00:00:Z","depth":0,"parameterNumber":2,"parameterNumberName":"U-component_of_WINDS"},"data":[0,0,0,0,0,0,0,0,0,0,0,0,0,0,0,0,0,0,0,0,0,0,0,0,0,0,0,0,0,0,0,0,0,0,0,0,0,0,0,0,0,0,0,0,0,0,0,0,0,0,0,0,0,0,0,0,0,0,-0.984,-0.9839,0,-0.9747,-0.9746,-0.9745,-0.9692,-0.9692,-0.9692,-0.9692,-0.9594,-0.9591,-0.9589,0,0,0,0,0,0,0,0,0,0,0,0,0,-0.9974,-0.9972,-0.984,-0.9839,-0.9838,-0.9747,-0.9746,-0.9744,-0.9692,-0.9692,-0.9692,-0.9692,-0.9594,-0.9592,-0.9589,0,0,0,0,0,0,0,0,0,0,0,0,0,-0.9902,-0.9971,-0.9841,-0.9801,-0.9797,-0.9747,-0.9746,-0.9744,-0.9692,-0.9692,-0.9692,-0.9692,-0.9595,-0.9592,-0.9588,-0.957,0,0,-0.9577,-0.9575,0,0,0,0,0,0,0,0,-0.9906,-0.9897,-0.9808,-0.9804,-0.9799,-0.9731,-0.9757,-0.9686,-0.9692,-0.9732,-0.9692,-0.9692,-0.9639,-0.9632,-0.9615,-0.9565,-0.9561,-0.9576,-0.9574,-0.9573,-0.9572,0,0,0,0,0,0,0,-0.9911,-0.99,-0.9803,-0.9807,-0.9801,-0.9788,-0.9778,-0.9743,-0.9688,-0.9728,-0.9724,-0.9714,-0.9637,-0.9619,-0.9612,-0.956,-0.9577,-0.9573,-0.9571,-0.957,-0.9492,-0.9493,0,0,0,0,0,0,-0.9922,-0.9905,-0.9806,-0.98,-0.9853,-0.9786,-0.9774,-0.9753,-0.9688,-0.9678,-0.9715,-0.9712,-0.9625,-0.9617,-0.9609,-0.9584,-0.9573,-0.9569,-0.9567,-0.9492,-0.9492,-0.9493,0,0,0,0,0,0,-0.9925,-0.9914,-0.981,-0.9852,-0.9837,-0.9784,-0.9761,-0.9751,-0.9733,-0.9678,-0.9668,-0.9706,-0.9625,-0.9614,-0.958,-0.9579,-0.9568,-0.9564,-0.9492,-0.9492,-0.9492,-0.9533,0,0,0,0,0,0,-0.9929,-0.9915,-0.9908,-0.9852,-0.9835,-0.9784,-0.976,-0.975,-0.9727,-0.9723,-0.9667,-0.9658,-0.9624,-0.9586,-0.9577,-0.9574,-0.9561,-0.9492,-0.9492,-0.9492,-0.9532,-0.9535,-0.9538,0,0,0,0,0,-0.9934,-0.9922,-0.9908,-0.9896,-0.9825,-0.9784,-0.9774,-0.9736,-0.9727,-0.9719,-0.9684,-0.9659,-0.9582,-0.9583,-0.9572,-0.9568,-0.9492,-0.9492,-0.9492,-0.9531,-0.9534,-0.9538,0,0,0,0,0,0,-0.9978,-0.9914,-0.9897,-0.9866,-0.9831,-0.9775,-0.9763,-0.9741,-0.9706,-0.9704,-0.9658,-0.9645,-0.9617,-0.9589,-0.9592,-0.9548,-0.9534,-0.9532,-0.9567,-0.957,-0.9573,-0.958,-0.9558,0,0,0,0,0,-0.9984,-0.9956,-0.9902,-0.988,-0.9863,-0.9817,-0.9797,-0.9771,-0.9732,-0.9717,-0.9679,-0.9642,-0.9609,-0.9588,-0.9555,-0.9529,-0.9516,-0.9521,-0.9524,-0.9526,-0.9525,-0.951,-0.9512,-0.9494,-0.9494,-0.9494,0,0,-0.9996,-0.9958,-0.9943,-0.9888,-0.9857,-0.983,-0.9804,-0.9776,-0.9755,-0.9712,-0.9679,-0.965,-0.9606,-0.9576,-0.9561,-0.9552,-0.9527,-0.9527,-0.9529,-0.9526,-0.9511,-0.9512,-0.9514,-0.9494,-0.9494,-0.9494,0,0,-1.0003,-0.9972,-0.9951,-0.9922,-0.9876,-0.9846,-0.9841,-0.9789,-0.9769,-0.9735,-0.9703,-0.9678,-0.9622,-0.9592,-0.957,-0.957,-0.9546,-0.956,-0.9575,-0.9561,-0.9562,-0.9563,-0.9564,-0.9564,-0.9559,-0.956,-0.956,0,-1.0024,-0.9981,-0.9943,-0.9916,-0.9894,-0.9856,-0.9835,-0.9808,-0.9754,-0.9739,-0.9731,-0.9662,-0.9629,-0.9592,-0.9593,-0.9576,-0.9569,-0.9565,-0.9566,-0.9566,-0.9566,-0.9566,-0.9566,-0.9562,-0.9561,-0.9561,-0.9561,0,-1.0008,-0.998,-0.9968,-0.9919,-0.9895,-0.9871,-0.9829,-0.981,-0.9787,-0.9758,-0.9725,-0.9685,-0.9644,-0.9633,-0.961,-0.9594,-0.959,-0.9574,-0.9559,-0.9571,-0.957,-0.9569,-0.9564,-0.9564,-0.9563,-0.9563,0,0,-1.0038,-0.997,-0.9966,-0.9944,-0.9893,-0.9869,-0.9845,-0.9806,-0.979,-0.9756,-0.9734,-0.9689,-0.9675,-0.965,-0.9623,-0.9611,-0.9615,-0.9597,-0.9595,-0.9601,-0.9595,-0.9607,-0.9607,-0.96,-0.9599,-0.9599,-0.9599,0,-1.0038,-0.9992,-0.9958,-0.9925,-0.9899,-0.9864,-0.9843,-0.981,-0.9783,-0.9756,-0.9726,-0.9695,-0.9679,-0.9663,-0.965,-0.9617,-0.9613,-0.9617,-0.9578,-0.9577,-0.9589,-0.9607,-0.9618,-0.962,-0.9598,-0.9598,-0.9598,0,-1.003,-0.9998,-0.9963,-0.9917,-0.9905,-0.9886,-0.9849,-0.9824,-0.9786,-0.9767,-0.9741,-0.9714,-0.9687,-0.9676,-0.9638,-0.9642,-0.9625,-0.9607,-0.9606,-0.9599,-0.9587,-0.96,-0.9619,-0.9619,-0.9597,-0.9597,-0.9597,0,-1.0056,-1.0004,-0.9976,-0.9958,-0.9903,-0.9892,-0.9868,-0.983,-0.981,-0.9777,-0.9763,-0.9728,-0.9708,-0.9682,-0.9646,-0.9641,-0.9613,-0.9598,-0.9596,-0.9597,-0.959,-0.9591,-0.9606,-0.9581,-0.9581,-0.9581,-0.9581,0,-1.0058,-1.0038,-0.9987,-0.997,-0.9947,-0.9909,-0.9887,-0.9861,-0.9828,-0.9806,-0.9774,-0.9753,-0.9709,-0.9683,-0.9655,-0.9629,-0.962,-0.9604,-0.9597,-0.9606,-0.9609,-0.9593,-0.9592,-0.9581,-0.9581,-0.9581,-0.9581,0,-1.0081,-1.0046,-1.0014,-0.9966,-0.9954,-0.9939,-0.9897,-0.988,-0.9853,-0.9825,-0.9816,-0.9772,-0.9741,-0.9704,-0.966,-0.9641,-0.9617,-0.9607,-0.963,-0.9625,-0.9625,-0.9626,-0.963,-0.9629,-0.9606,-0.9607,-0.9607,0,-1.0085,-1.0069,-1.002,-1.0003,-0.9981,-0.9954,-0.9934,-0.9897,-0.9876,-0.9834,-0.9822,-0.9788,-0.9759,-0.971,-0.9675,-0.9641,-0.9629,-0.9634,-0.9624,-0.9635,-0.9629,-0.963,-0.9628,-0.9635,-0.9636,-0.9636,-0.9637,0,-1.0095,-1.0079,-1.0051,-1.0018,-0.9994,-0.9966,-0.9936,-0.9924,-0.9881,-0.986,-0.9828,-0.9806,-0.9763,-0.973,-0.9692,-0.9668,-0.9645,-0.964,-0.9638,-0.9647,-0.9661,-0.9653,-0.9636,-0.964,-0.9639,-0.9639,-0.9639,-0.9639,-1.0108,-1.0093,-1.0057,-1.0027,-1.0001,-0.9974,-0.9956,-0.9927,-0.99,-0.9862,-0.9842,-0.9811,-0.9775,-0.9723,-0.97,-0.9675,-0.9667,-0.9664,-0.9663,-0.9662,-0.9665,-0.9667,-0.9668,-0.9668,-0.9668,-0.9668,-0.9668,0,-1.0117,-1.0092,-1.0065,-1.0025,-1.0002,-0.9985,-0.9952,-0.9933,-0.9906,-0.9875,-0.9848,-0.9813,-0.9781,-0.9744,-0.9711,-0.9698,-0.9687,-0.969,-0.969,-0.9685,-0.9674,-0.9679,-0.97,-0.97,-0.97,-0.97,-0.97,-0.97,-1.0118,-1.0092,-1.0072,-1.0033,-1.0008,-0.9978,-0.9961,-0.9936,-0.9912,-0.9873,-0.9848,-0.9825,-0.9791,-0.9756,-0.9726,-0.9716,-0.9705,-0.9712,-0.9699,-0.9689,-0.9686,-0.9683,-0.9688,-0.971,-0.971,-0.9712,-0.9712,-0.9712]},{"header":{"parameterUnit":"m.s-1","parameterCategory":1,"la1":30.2991,"la2":30.254,"lo1":-89.0895,"lo2":-89.0444,"dy":0.0017,"dx":0.0017,"nx":28,"ny":28,"refTime":"2023-07-23T09:00:00:Z","depth":0,"parameterNumber":3,"parameterNumberName":"V-component_of_WINDS"},"data":[0,0,0,0,0,0,0,0,0,0,0,0,0,0,0,0,0,0,0,0,0,0,0,0,0,0,0,0,0,0,0,0,0,0,0,0,0,0,0,0,0,0,0,0,0,0,0,0,0,0,0,0,0,0,0,0,0,0,4.1918,4.1918,0,4.1932,4.1933,4.1933,4.1952,4.1952,4.1952,4.1953,4.1965,4.1965,4.1965,0,0,0,0,0,0,0,0,0,0,0,0,0,4.1904,4.1904,4.1918,4.1918,4.1918,4.1932,4.1933,4.1933,4.1952,4.1952,4.1953,4.1953,4.1965,4.1965,4.1965,0,0,0,0,0,0,0,0,0,0,0,0,0,4.1913,4.1904,4.1918,4.1929,4.193,4.1932,4.1933,4.1933,4.1952,4.1952,4.1953,4.1953,4.1965,4.1965,4.1965,4.1956,0,0,4.1965,4.1965,0,0,0,0,0,0,0,0,4.1913,4.1914,4.1927,4.1928,4.193,4.1941,4.1932,4.1941,4.1952,4.1944,4.1953,4.1953,4.1956,4.1957,4.1959,4.1957,4.1957,4.1965,4.1965,4.1965,4.1965,0,0,0,0,0,0,0,4.1912,4.1913,4.1923,4.1928,4.1929,4.1933,4.1935,4.1934,4.1947,4.1944,4.1946,4.1947,4.1957,4.1959,4.1959,4.1957,4.1965,4.1965,4.1965,4.1965,4.1949,4.1949,0,0,0,0,0,0,4.191,4.1913,4.1923,4.1924,4.1922,4.1933,4.1935,4.1937,4.1947,4.1949,4.1947,4.1948,4.1959,4.1959,4.196,4.195,4.1965,4.1966,4.1966,4.1949,4.1949,4.1948,0,0,0,0,0,0,4.191,4.1911,4.1922,4.1919,4.1921,4.1933,4.1934,4.1937,4.1938,4.1949,4.1951,4.1946,4.1959,4.196,4.1957,4.1951,4.1966,4.1966,4.195,4.1949,4.1949,4.1931,0,0,0,0,0,0,4.1909,4.1911,4.1907,4.1919,4.1921,4.192,4.1934,4.1937,4.1939,4.1941,4.1949,4.1951,4.1959,4.1957,4.1957,4.1951,4.1966,4.1951,4.195,4.1949,4.1932,4.1929,4.1927,0,0,0,0,0,4.1909,4.1901,4.1907,4.1908,4.1917,4.1919,4.1921,4.1931,4.1938,4.1935,4.1942,4.1951,4.1952,4.1957,4.1957,4.1951,4.1951,4.195,4.1949,4.1933,4.193,4.1927,0,0,0,0,0,0,4.1888,4.1903,4.191,4.1906,4.1911,4.1923,4.1919,4.1928,4.1931,4.1932,4.1944,4.1946,4.1942,4.1946,4.1951,4.1943,4.1953,4.1952,4.194,4.1938,4.1935,4.1934,4.1966,0,0,0,0,0,4.1883,4.1884,4.1897,4.1892,4.1895,4.1906,4.1908,4.1916,4.1922,4.1924,4.1931,4.1935,4.1937,4.1938,4.1939,4.1933,4.1935,4.1929,4.1927,4.1925,4.1924,4.1921,4.1919,4.1945,4.1945,4.1945,0,0,4.1872,4.1881,4.188,4.1888,4.1893,4.1894,4.1908,4.1908,4.1909,4.1923,4.1922,4.1927,4.1933,4.1929,4.1927,4.1932,4.1917,4.1923,4.1922,4.1922,4.192,4.1917,4.1915,4.1944,4.1944,4.1944,0,0,4.1853,4.186,4.1857,4.1862,4.1871,4.1879,4.1878,4.1889,4.1893,4.1892,4.1904,4.1904,4.1906,4.1911,4.1913,4.1897,4.1905,4.1897,4.1886,4.1883,4.1881,4.1879,4.1874,4.1872,4.1896,4.1896,4.1896,0,4.1839,4.1841,4.1854,4.1854,4.1857,4.1872,4.1869,4.1873,4.1881,4.1883,4.1889,4.1893,4.1898,4.1895,4.1891,4.1893,4.1892,4.1896,4.188,4.1879,4.1877,4.1872,4.187,4.1895,4.1895,4.1896,4.1896,0,4.1823,4.1825,4.1821,4.183,4.1833,4.1831,4.1843,4.1844,4.1852,4.186,4.1858,4.1865,4.1869,4.1869,4.1876,4.1868,4.1871,4.1878,4.1888,4.1873,4.1869,4.1867,4.1894,4.1894,4.1895,4.1895,0,0,4.1791,4.1808,4.1806,4.1811,4.1822,4.1823,4.1822,4.1827,4.1828,4.1833,4.1833,4.1835,4.1843,4.1845,4.1853,4.1851,4.1838,4.1859,4.1859,4.1855,4.183,4.1824,4.1821,4.1844,4.1844,4.1844,4.1829,0,4.1774,4.1774,4.1786,4.1783,4.1784,4.1799,4.1798,4.1805,4.1812,4.1814,4.1821,4.1823,4.1833,4.1834,4.1833,4.184,4.1833,4.1841,4.1843,4.1843,4.1841,4.1819,4.1813,4.1799,4.1827,4.1827,4.1827,0,4.1754,4.176,4.1757,4.1769,4.1771,4.177,4.1776,4.1778,4.1785,4.1791,4.1794,4.1804,4.1803,4.1813,4.1813,4.1818,4.1819,4.1823,4.1823,4.1823,4.1834,4.1819,4.1795,4.1793,4.1824,4.1824,4.1825,0,4.1731,4.1738,4.1738,4.1741,4.1755,4.1754,4.176,4.1768,4.1771,4.1776,4.1778,4.1782,4.1785,4.1788,4.1798,4.1804,4.1797,4.1807,4.1801,4.1801,4.1798,4.1798,4.1774,4.1799,4.1799,4.1799,4.1799,0,4.1711,4.1709,4.1728,4.1727,4.1725,4.1739,4.1736,4.1743,4.1751,4.1752,4.1764,4.1765,4.1779,4.178,4.1788,4.1787,4.1788,4.1792,4.1794,4.1791,4.179,4.1792,4.1793,4.1799,4.1799,4.1799,4.1799,0,4.1685,4.1697,4.1698,4.1712,4.1715,4.1713,4.1725,4.1725,4.1733,4.1734,4.1735,4.1748,4.1751,4.1762,4.1767,4.1773,4.1769,4.1773,4.1766,4.1768,4.1761,4.1762,4.1737,4.1734,4.1761,4.1761,4.176,0,4.1671,4.167,4.1685,4.1687,4.1692,4.1695,4.1699,4.1712,4.1715,4.1724,4.1723,4.1728,4.1732,4.1736,4.1745,4.1749,4.1754,4.1745,4.1754,4.1751,4.1754,4.1754,4.1754,4.1742,4.1742,4.1742,4.1742,0,4.1646,4.1653,4.1657,4.1665,4.1668,4.1674,4.1681,4.1682,4.1697,4.1699,4.1703,4.1707,4.1713,4.1717,4.1723,4.1728,4.1737,4.1739,4.1738,4.1734,4.1731,4.1733,4.1761,4.1739,4.1739,4.1739,4.174,4.174,4.1626,4.1626,4.1637,4.1641,4.1648,4.1654,4.1656,4.1665,4.1669,4.1676,4.1683,4.1686,4.1695,4.1704,4.1709,4.1711,4.1716,4.1714,4.1714,4.1713,4.1712,4.1731,4.1712,4.1712,4.1712,4.1712,4.1712,0,4.1602,4.161,4.1614,4.1624,4.1628,4.1637,4.1645,4.1648,4.1651,4.1658,4.1663,4.1668,4.1672,4.1682,4.1687,4.1687,4.1692,4.1688,4.1688,4.1689,4.1707,4.1707,4.1685,4.1685,4.1685,4.1685,4.1685,4.1685,4.159,4.1591,4.1598,4.1603,4.1611,4.1615,4.1619,4.1624,4.1631,4.1636,4.164,4.1647,4.1656,4.1662,4.1666,4.1669,4.167,4.1665,4.167,4.1685,4.1688,4.1691,4.1691,4.1666,4.1666,4.1652,4.1652,4.1652]}]]